Avian Flight Center Webcam (1 minute updates)

Looking East from Avian at mid-field (Taxiway E) towards Runway 20-2 (Click for full size image). Image will update automatically every minute.

Bremerton Airport Live Webcam

KPWT 251155Z AUTO 04006KT 10SM BKN017 BKN030 06/03 A2993 RMK AO1 70005 10070 20050 52007

Time-lapse movie of yesterday's webcam images

If you are unable to view the movie, download and install the DivX Codec here